Year,Month,Day,Hour,Minute,Value (Times are PST for temperature in C)
2011,08,08,00,00,13.70
2011,08,08,00,01,13.70
2011,08,08,00,02,13.70
2011,08,08,00,03,13.70
2011,08,08,00,04,13.60
2011,08,08,00,05,13.60
2011,08,08,00,06,13.60
2011,08,08,00,07,13.60
2011,08,08,00,08,13.60
2011,08,08,00,09,13.60
2011,08,08,00,10,13.60
2011,08,08,00,11,13.60
2011,08,08,00,12,13.60
2011,08,08,00,13,13.60
2011,08,08,00,14,13.60
2011,08,08,00,15,13.60
2011,08,08,00,16,13.60
2011,08,08,00,17,13.60
2011,08,08,00,18,13.50
2011,08,08,00,19,13.50
2011,08,08,00,20,13.50
2011,08,08,00,21,13.50
2011,08,08,00,22,13.50
2011,08,08,00,23,13.50
2011,08,08,00,24,13.40
2011,08,08,00,25,13.40
2011,08,08,00,26,13.40
2011,08,08,00,27,13.40
2011,08,08,00,28,13.30
2011,08,08,00,29,13.30
2011,08,08,00,30,13.30
2011,08,08,00,31,13.30
2011,08,08,00,32,13.30
2011,08,08,00,33,13.20
2011,08,08,00,34,13.20
2011,08,08,00,35,13.20
2011,08,08,00,36,13.20
2011,08,08,00,37,13.20
2011,08,08,00,38,13.20
2011,08,08,00,39,13.20
2011,08,08,00,40,13.20
2011,08,08,00,41,13.30
2011,08,08,00,42,13.30
2011,08,08,00,43,13.30
2011,08,08,00,44,13.30
2011,08,08,00,45,13.30
2011,08,08,00,46,13.30
2011,08,08,00,47,13.30
2011,08,08,00,48,13.30
2011,08,08,00,49,13.20
2011,08,08,00,50,13.20
2011,08,08,00,51,13.20
2011,08,08,00,52,13.20
2011,08,08,00,53,13.10
2011,08,08,00,54,13.10
2011,08,08,00,55,13.10
2011,08,08,00,56,13.00
2011,08,08,00,57,13.00
2011,08,08,00,58,13.00
2011,08,08,00,59,12.90
2011,08,08,01,00,12.90
2011,08,08,01,01,12.90
2011,08,08,01,02,12.80
2011,08,08,01,03,12.80
2011,08,08,01,04,12.80
2011,08,08,01,05,12.80
2011,08,08,01,06,12.80
2011,08,08,01,07,12.80
2011,08,08,01,08,12.80
2011,08,08,01,09,12.70
2011,08,08,01,10,12.70
2011,08,08,01,11,12.70
2011,08,08,01,12,12.60
2011,08,08,01,13,12.60
2011,08,08,01,14,12.60
2011,08,08,01,15,12.50
2011,08,08,01,16,12.50
2011,08,08,01,17,12.50
2011,08,08,01,18,12.40
2011,08,08,01,19,12.40
2011,08,08,01,20,12.40
2011,08,08,01,21,12.30
2011,08,08,01,22,12.30
2011,08,08,01,23,12.30
2011,08,08,01,24,12.30
2011,08,08,01,25,12.30
2011,08,08,01,26,12.20
2011,08,08,01,27,12.20
2011,08,08,01,28,12.20
2011,08,08,01,29,12.10
2011,08,08,01,30,12.10
2011,08,08,01,31,12.10
2011,08,08,01,32,12.10
2011,08,08,01,33,12.00
2011,08,08,01,34,12.00
2011,08,08,01,35,12.00
2011,08,08,01,36,12.00
2011,08,08,01,37,11.90
2011,08,08,01,38,11.90
2011,08,08,01,39,11.90
2011,08,08,01,40,11.90
2011,08,08,01,41,11.90
2011,08,08,01,42,11.80
2011,08,08,01,43,11.80
2011,08,08,01,44,11.80
2011,08,08,01,45,11.80
2011,08,08,01,46,11.80
2011,08,08,01,47,11.80
2011,08,08,01,48,11.80
2011,08,08,01,49,11.80
2011,08,08,01,50,11.80
2011,08,08,01,51,11.80
2011,08,08,01,52,11.80
2011,08,08,01,53,11.80
2011,08,08,01,54,11.80
2011,08,08,01,55,11.70
2011,08,08,01,56,11.70
2011,08,08,01,57,11.70
2011,08,08,01,58,11.70
2011,08,08,01,59,11.70
2011,08,08,02,00,11.70
2011,08,08,02,01,11.70
2011,08,08,02,02,11.60
2011,08,08,02,03,11.60
2011,08,08,02,04,11.60
2011,08,08,02,05,11.60
2011,08,08,02,06,11.60
2011,08,08,02,07,11.60
2011,08,08,02,08,11.60
2011,08,08,02,09,11.60
2011,08,08,02,10,11.60
2011,08,08,02,11,11.60
2011,08,08,02,12,11.60
2011,08,08,02,13,11.60
2011,08,08,02,14,11.60
2011,08,08,02,15,11.60
2011,08,08,02,16,11.60
2011,08,08,02,17,11.60
2011,08,08,02,18,11.60
2011,08,08,02,19,11.70
2011,08,08,02,20,11.70
2011,08,08,02,21,11.70
2011,08,08,02,22,11.70
2011,08,08,02,23,11.70
2011,08,08,02,24,11.70
2011,08,08,02,25,11.70
2011,08,08,02,26,11.60
2011,08,08,02,27,11.60
2011,08,08,02,28,11.60
2011,08,08,02,29,11.60
2011,08,08,02,30,11.60
2011,08,08,02,31,11.60
2011,08,08,02,32,11.60
2011,08,08,02,33,11.60
2011,08,08,02,34,11.60
2011,08,08,02,35,11.50
2011,08,08,02,36,11.40
2011,08,08,02,37,11.40
2011,08,08,02,38,11.40
2011,08,08,02,39,11.40
2011,08,08,02,40,11.40
2011,08,08,02,41,11.40
2011,08,08,02,42,11.40
2011,08,08,02,43,11.40
2011,08,08,02,44,11.60
2011,08,08,02,45,11.60
2011,08,08,02,46,11.60
2011,08,08,02,47,11.60
2011,08,08,02,48,11.60
2011,08,08,02,49,11.60
2011,08,08,02,50,11.60
2011,08,08,02,51,11.60
2011,08,08,02,52,11.40
2011,08,08,02,53,11.40
2011,08,08,02,54,11.40
2011,08,08,02,55,11.40
2011,08,08,02,56,11.40
2011,08,08,02,57,11.40
2011,08,08,02,58,11.50
2011,08,08,02,59,11.60
2011,08,08,03,00,11.60
2011,08,08,03,01,11.60
2011,08,08,03,02,11.60
2011,08,08,03,03,11.50
2011,08,08,03,04,11.40
2011,08,08,03,05,11.40
2011,08,08,03,06,11.40
2011,08,08,03,07,11.40
2011,08,08,03,08,11.40
2011,08,08,03,09,11.50
2011,08,08,03,10,11.60
2011,08,08,03,11,11.50
2011,08,08,03,12,11.40
2011,08,08,03,13,11.40
2011,08,08,03,14,11.40
2011,08,08,03,15,11.40
2011,08,08,03,16,11.40
2011,08,08,03,17,11.40
2011,08,08,03,18,11.40
2011,08,08,03,19,11.40
2011,08,08,03,20,11.40
2011,08,08,03,21,11.40
2011,08,08,03,22,11.40
2011,08,08,03,23,11.40
2011,08,08,03,24,11.40
2011,08,08,03,25,11.40
2011,08,08,03,26,11.40
2011,08,08,03,27,11.40
2011,08,08,03,28,11.40
2011,08,08,03,29,11.40
2011,08,08,03,30,11.40
2011,08,08,03,31,11.40
2011,08,08,03,32,11.40
2011,08,08,03,33,11.40
2011,08,08,03,34,11.40
2011,08,08,03,35,11.40
2011,08,08,03,36,11.40
2011,08,08,03,37,11.40
2011,08,08,03,38,11.40
2011,08,08,03,39,11.40
2011,08,08,03,40,11.40
2011,08,08,03,41,11.40
2011,08,08,03,42,11.40
2011,08,08,03,43,11.40
2011,08,08,03,44,11.40
2011,08,08,03,45,11.40
2011,08,08,03,46,11.40
2011,08,08,03,47,11.40
2011,08,08,03,48,11.40
2011,08,08,03,49,11.40
2011,08,08,03,50,11.40
2011,08,08,03,51,11.40
2011,08,08,03,52,11.40
2011,08,08,03,53,11.40
2011,08,08,03,54,11.40
2011,08,08,03,55,11.30
2011,08,08,03,56,11.30
2011,08,08,03,57,11.30
2011,08,08,03,58,11.20
2011,08,08,03,59,11.20
2011,08,08,04,00,11.20
2011,08,08,04,01,11.20
2011,08,08,04,02,11.20
2011,08,08,04,03,11.10
2011,08,08,04,04,11.10
2011,08,08,04,05,11.10
2011,08,08,04,06,11.10
2011,08,08,04,07,11.10
2011,08,08,04,08,11.10
2011,08,08,04,09,11.10
2011,08,08,04,10,11.10
2011,08,08,04,11,11.10
2011,08,08,04,12,11.10
2011,08,08,04,13,11.10
2011,08,08,04,14,11.10
2011,08,08,04,15,11.10
2011,08,08,04,16,11.10
2011,08,08,04,17,11.10
2011,08,08,04,18,11.10
2011,08,08,04,19,11.10
2011,08,08,04,20,11.10
2011,08,08,04,21,11.00
2011,08,08,04,22,10.90
2011,08,08,04,23,10.90
2011,08,08,04,24,10.90
2011,08,08,04,25,10.90
2011,08,08,04,26,10.90
2011,08,08,04,27,10.90
2011,08,08,04,28,10.90
2011,08,08,04,29,10.80
2011,08,08,04,30,10.80
2011,08,08,04,31,10.80
2011,08,08,04,32,10.80
2011,08,08,04,33,10.80
2011,08,08,04,34,10.70
2011,08,08,04,35,10.70
2011,08,08,04,36,10.70
2011,08,08,04,37,10.70
2011,08,08,04,38,10.70
2011,08,08,04,39,10.80
2011,08,08,04,40,10.80
2011,08,08,04,41,10.80
2011,08,08,04,42,10.80
2011,08,08,04,43,10.80
2011,08,08,04,44,10.90
2011,08,08,04,45,10.90
2011,08,08,04,46,10.90
2011,08,08,04,47,10.90
2011,08,08,04,48,10.90
2011,08,08,04,49,10.90
2011,08,08,04,50,10.90
2011,08,08,04,51,10.90
2011,08,08,04,52,10.90
2011,08,08,04,53,10.90
2011,08,08,04,54,10.90
2011,08,08,04,55,10.90
2011,08,08,04,56,10.90
2011,08,08,04,57,10.90
2011,08,08,04,58,10.90
2011,08,08,04,59,10.90
2011,08,08,05,00,10.90
2011,08,08,05,01,10.90
2011,08,08,05,02,10.90
2011,08,08,05,03,10.80
2011,08,08,05,04,10.80
2011,08,08,05,05,10.80
2011,08,08,05,06,10.80
2011,08,08,05,07,10.80
2011,08,08,05,08,10.80
2011,08,08,05,09,10.80
2011,08,08,05,10,10.70
2011,08,08,05,11,10.70
2011,08,08,05,12,10.70
2011,08,08,05,13,10.70
2011,08,08,05,14,10.70
2011,08,08,05,15,10.70
2011,08,08,05,16,10.70
2011,08,08,05,17,10.60
2011,08,08,05,18,10.60
2011,08,08,05,19,10.60
2011,08,08,05,20,10.70
2011,08,08,05,21,10.70
2011,08,08,05,22,10.70
2011,08,08,05,23,10.70
2011,08,08,05,24,10.70
2011,08,08,05,25,10.70
2011,08,08,05,26,10.70
2011,08,08,05,27,10.80
2011,08,08,05,28,10.80
2011,08,08,05,29,10.80
2011,08,08,05,30,10.80
2011,08,08,05,31,10.80
2011,08,08,05,32,10.90
2011,08,08,05,33,10.90
2011,08,08,05,34,10.90
2011,08,08,05,35,10.90
2011,08,08,05,36,10.90
2011,08,08,05,37,10.90
2011,08,08,05,38,10.90
2011,08,08,05,39,10.90
2011,08,08,05,40,10.90
2011,08,08,05,41,10.90
2011,08,08,05,42,10.90
2011,08,08,05,43,10.80
2011,08,08,05,44,10.80
2011,08,08,05,45,10.80
2011,08,08,05,46,10.80
2011,08,08,05,47,10.80
2011,08,08,05,48,10.80
2011,08,08,05,49,10.70
2011,08,08,05,50,10.70
2011,08,08,05,51,10.70
2011,08,08,05,52,10.70
2011,08,08,05,53,10.70
2011,08,08,05,54,10.70
2011,08,08,05,55,10.70
2011,08,08,05,56,10.70
2011,08,08,05,57,10.70
2011,08,08,05,58,10.70
2011,08,08,05,59,10.70
2011,08,08,06,00,10.70
2011,08,08,06,01,10.70
2011,08,08,06,02,10.70
2011,08,08,06,03,10.70
2011,08,08,06,04,10.70
2011,08,08,06,05,10.70
2011,08,08,06,06,10.70
2011,08,08,06,07,10.70
2011,08,08,06,08,10.70
2011,08,08,06,09,10.70
2011,08,08,06,10,10.60
2011,08,08,06,11,10.60
2011,08,08,06,12,10.60
2011,08,08,06,13,10.60
2011,08,08,06,14,10.60
2011,08,08,06,15,10.60
2011,08,08,06,16,10.60
2011,08,08,06,17,10.60
2011,08,08,06,18,10.50
2011,08,08,06,19,10.40
2011,08,08,06,20,10.40
2011,08,08,06,21,10.40
2011,08,08,06,22,10.50
2011,08,08,06,23,10.60
2011,08,08,06,24,10.60
2011,08,08,06,25,10.60
2011,08,08,06,26,10.60
2011,08,08,06,27,10.60
2011,08,08,06,28,10.60
2011,08,08,06,29,10.60
2011,08,08,06,30,10.60
2011,08,08,06,31,10.70
2011,08,08,06,32,10.70
2011,08,08,06,33,10.70
2011,08,08,06,34,10.70
2011,08,08,06,35,10.80
2011,08,08,06,36,10.80
2011,08,08,06,37,10.80
2011,08,08,06,38,10.80
2011,08,08,06,39,10.80
2011,08,08,06,40,10.80
2011,08,08,06,41,10.90
2011,08,08,06,42,10.90
2011,08,08,06,43,10.90
2011,08,08,06,44,10.90
2011,08,08,06,45,10.90
2011,08,08,06,46,11.00
2011,08,08,06,47,11.10
2011,08,08,06,48,11.10
2011,08,08,06,49,11.10
2011,08,08,06,50,11.10
2011,08,08,06,51,11.10
2011,08,08,06,52,11.10
2011,08,08,06,53,11.10
2011,08,08,06,54,11.10
2011,08,08,06,55,11.20
2011,08,08,06,56,11.20
2011,08,08,06,57,11.20
2011,08,08,06,58,11.20
2011,08,08,06,59,11.20
2011,08,08,07,00,11.30
2011,08,08,07,01,11.30
2011,08,08,07,02,11.30
2011,08,08,07,03,11.30
2011,08,08,07,04,11.40
2011,08,08,07,05,11.40
2011,08,08,07,06,11.40
2011,08,08,07,07,11.40
2011,08,08,07,08,11.40
2011,08,08,07,09,11.40
2011,08,08,07,10,11.40
2011,08,08,07,11,11.50
2011,08,08,07,12,11.60
2011,08,08,07,13,11.60
2011,08,08,07,14,11.60
2011,08,08,07,15,11.60
2011,08,08,07,16,11.60
2011,08,08,07,17,11.60
2011,08,08,07,18,11.60
2011,08,08,07,19,11.70
2011,08,08,07,20,11.70
2011,08,08,07,21,11.70
2011,08,08,07,22,11.80
2011,08,08,07,23,11.80
2011,08,08,07,24,11.80
2011,08,08,07,25,11.80
2011,08,08,07,26,11.80
2011,08,08,07,27,11.80
2011,08,08,07,28,11.90
2011,08,08,07,29,11.90
2011,08,08,07,30,11.90
2011,08,08,07,31,12.00
2011,08,08,07,32,12.00
2011,08,08,07,33,12.10
2011,08,08,07,34,12.10
2011,08,08,07,35,12.10
2011,08,08,07,36,12.20
2011,08,08,07,37,12.20
2011,08,08,07,38,12.30
2011,08,08,07,39,12.30
2011,08,08,07,40,12.30
2011,08,08,07,41,12.40
2011,08,08,07,42,12.40
2011,08,08,07,43,12.50
2011,08,08,07,44,12.50
2011,08,08,07,45,12.60
2011,08,08,07,46,12.60
2011,08,08,07,47,12.70
2011,08,08,07,48,12.70
2011,08,08,07,49,12.80
2011,08,08,07,50,12.80
2011,08,08,07,51,12.80
2011,08,08,07,52,12.90
2011,08,08,07,53,13.00
2011,08,08,07,54,13.00
2011,08,08,07,55,13.10
2011,08,08,07,56,13.10
2011,08,08,07,57,13.20
2011,08,08,07,58,13.20
2011,08,08,07,59,13.30
2011,08,08,08,00,13.30
2011,08,08,08,01,13.30
2011,08,08,08,02,13.40
2011,08,08,08,03,13.50
2011,08,08,08,04,13.60
2011,08,08,08,05,13.60
2011,08,08,08,06,13.70
2011,08,08,08,07,13.70
2011,08,08,08,08,13.80
2011,08,08,08,09,13.90
2011,08,08,08,10,13.90
2011,08,08,08,11,14.00
2011,08,08,08,12,14.10
2011,08,08,08,13,14.20
2011,08,08,08,14,14.20
2011,08,08,08,15,14.40
2011,08,08,08,16,14.50
2011,08,08,08,17,14.50
2011,08,08,08,18,14.60
2011,08,08,08,19,14.60
2011,08,08,08,20,14.70
2011,08,08,08,21,14.80
2011,08,08,08,22,14.80
2011,08,08,08,23,14.90
2011,08,08,08,24,14.90
2011,08,08,08,25,15.00
2011,08,08,08,26,15.00
2011,08,08,08,27,15.10
2011,08,08,08,28,15.10
2011,08,08,08,29,15.10
2011,08,08,08,30,15.20
2011,08,08,08,31,15.20
2011,08,08,08,32,15.20
2011,08,08,08,33,15.30
2011,08,08,08,34,15.30
2011,08,08,08,35,15.30
2011,08,08,08,36,15.30
2011,08,08,08,37,15.30
2011,08,08,08,38,15.30
2011,08,08,08,39,15.30
2011,08,08,08,40,15.30
2011,08,08,08,41,15.40
2011,08,08,08,42,15.50
2011,08,08,08,43,15.50
2011,08,08,08,44,15.50
2011,08,08,08,45,15.50
2011,08,08,08,46,15.60
2011,08,08,08,47,15.60
2011,08,08,08,48,15.60
2011,08,08,08,49,15.60
2011,08,08,08,50,15.60
2011,08,08,08,51,15.70
2011,08,08,08,52,15.70
2011,08,08,08,53,15.70
2011,08,08,08,54,15.80
2011,08,08,08,55,15.80
2011,08,08,08,56,15.80
2011,08,08,08,57,15.80
2011,08,08,08,58,15.80
2011,08,08,08,59,15.80
2011,08,08,09,00,15.80
2011,08,08,09,01,15.90
2011,08,08,09,02,15.90
2011,08,08,09,03,16.00
2011,08,08,09,04,16.10
2011,08,08,09,05,16.10
2011,08,08,09,06,16.10
2011,08,08,09,07,16.10
2011,08,08,09,08,16.10
2011,08,08,09,09,16.10
2011,08,08,09,10,16.10
2011,08,08,09,11,16.10
2011,08,08,09,12,16.10
2011,08,08,09,13,16.10
2011,08,08,09,14,16.10
2011,08,08,09,15,16.10
2011,08,08,09,16,16.10
2011,08,08,09,17,16.10
2011,08,08,09,18,16.10
2011,08,08,09,19,16.10
2011,08,08,09,20,16.10
2011,08,08,09,21,16.10
2011,08,08,09,22,16.10
2011,08,08,09,23,16.10
2011,08,08,09,24,16.10
2011,08,08,09,25,16.10
2011,08,08,09,26,16.10
2011,08,08,09,27,16.10
2011,08,08,09,28,16.10
2011,08,08,09,29,16.10
2011,08,08,09,30,16.10
2011,08,08,09,31,16.10
2011,08,08,09,32,16.20
2011,08,08,09,33,16.20
2011,08,08,09,34,16.30
2011,08,08,09,35,16.30
2011,08,08,09,36,16.30
2011,08,08,09,37,16.30
2011,08,08,09,38,16.30
2011,08,08,09,39,16.30
2011,08,08,09,40,16.30
2011,08,08,09,41,16.30
2011,08,08,09,42,16.30
2011,08,08,09,43,16.30
2011,08,08,09,44,16.40
2011,08,08,09,45,16.40
2011,08,08,09,46,16.30
2011,08,08,09,47,16.30
2011,08,08,09,48,16.30
2011,08,08,09,49,16.30
2011,08,08,09,50,16.30
2011,08,08,09,51,16.40
2011,08,08,09,52,16.40
2011,08,08,09,53,16.40
2011,08,08,09,54,16.40
2011,08,08,09,55,16.40
2011,08,08,09,56,16.40
2011,08,08,09,57,16.40
2011,08,08,09,58,16.40
2011,08,08,09,59,16.40
2011,08,08,10,00,16.40
2011,08,08,10,01,16.40
2011,08,08,10,02,16.40
2011,08,08,10,03,16.40
2011,08,08,10,04,16.40
2011,08,08,10,05,16.40
2011,08,08,10,06,16.50
2011,08,08,10,07,16.60
2011,08,08,10,08,16.60
2011,08,08,10,09,16.70
2011,08,08,10,10,16.70
2011,08,08,10,11,16.80
2011,08,08,10,12,16.90
2011,08,08,10,13,16.90
2011,08,08,10,14,17.00
2011,08,08,10,15,17.00
2011,08,08,10,16,17.10
2011,08,08,10,17,17.20
2011,08,08,10,18,17.20
2011,08,08,10,19,17.20
2011,08,08,10,20,17.20
2011,08,08,10,21,17.20
2011,08,08,10,22,17.20
2011,08,08,10,23,17.20
2011,08,08,10,24,17.20
2011,08,08,10,25,17.20
2011,08,08,10,26,17.20
2011,08,08,10,27,17.20
2011,08,08,10,28,17.10
2011,08,08,10,29,17.10
2011,08,08,10,30,17.10
2011,08,08,10,31,17.00
2011,08,08,10,32,17.00
2011,08,08,10,33,17.00
2011,08,08,10,34,17.00
2011,08,08,10,35,17.00
2011,08,08,10,36,17.00
2011,08,08,10,37,16.90
2011,08,08,10,38,16.80
2011,08,08,10,39,16.70
2011,08,08,10,40,16.70
2011,08,08,10,41,16.70
2011,08,08,10,42,16.70
2011,08,08,10,43,16.70
2011,08,08,10,44,16.70
2011,08,08,10,45,16.80
2011,08,08,10,46,16.80
2011,08,08,10,47,16.90
2011,08,08,10,48,17.00
2011,08,08,10,49,17.00
2011,08,08,10,50,17.00
2011,08,08,10,51,17.00
2011,08,08,10,52,16.90
2011,08,08,10,53,16.90
2011,08,08,10,54,16.90
2011,08,08,10,55,16.80
2011,08,08,10,56,16.90
2011,08,08,10,57,16.90
2011,08,08,10,58,16.80
2011,08,08,10,59,16.80
2011,08,08,11,00,16.90
2011,08,08,11,01,17.00
2011,08,08,11,02,17.00
2011,08,08,11,03,17.10
2011,08,08,11,04,17.20
2011,08,08,11,05,17.20
2011,08,08,11,06,17.30
2011,08,08,11,07,17.30
2011,08,08,11,08,17.30
2011,08,08,11,09,17.20
2011,08,08,11,10,17.20
2011,08,08,11,11,17.30
2011,08,08,11,12,17.30
2011,08,08,11,13,17.30
2011,08,08,11,14,17.40
2011,08,08,11,15,17.60
2011,08,08,11,16,17.70
2011,08,08,11,17,17.70
2011,08,08,11,18,17.80
2011,08,08,11,19,17.90
2011,08,08,11,20,18.00
2011,08,08,11,21,18.10
2011,08,08,11,22,18.20
2011,08,08,11,23,18.30
2011,08,08,11,24,18.50
2011,08,08,11,25,18.60
2011,08,08,11,26,18.70
2011,08,08,11,27,18.90
2011,08,08,11,28,19.00
2011,08,08,11,29,19.10
2011,08,08,11,30,19.10
2011,08,08,11,31,18.90
2011,08,08,11,32,18.90
2011,08,08,11,33,18.80
2011,08,08,11,34,18.90
2011,08,08,11,35,18.90
2011,08,08,11,36,18.90
2011,08,08,11,37,19.00
2011,08,08,11,38,19.10
2011,08,08,11,39,19.00
2011,08,08,11,40,18.90
2011,08,08,11,41,18.90
2011,08,08,11,42,18.90
2011,08,08,11,43,18.80
2011,08,08,11,44,18.80
2011,08,08,11,45,18.90
2011,08,08,11,46,18.90
2011,08,08,11,47,19.00
2011,08,08,11,48,19.10
2011,08,08,11,49,19.10
2011,08,08,11,50,19.10
2011,08,08,11,51,19.10
2011,08,08,11,52,19.10
2011,08,08,11,53,19.10
2011,08,08,11,54,19.10
2011,08,08,11,55,19.20
2011,08,08,11,56,19.20
2011,08,08,11,57,19.30
2011,08,08,11,58,19.30
2011,08,08,11,59,19.30
2011,08,08,12,00,19.30
2011,08,08,12,01,19.30
2011,08,08,12,02,19.30
2011,08,08,12,03,19.40
2011,08,08,12,04,19.60
2011,08,08,12,05,19.60
2011,08,08,12,06,19.40
2011,08,08,12,07,19.20
2011,08,08,12,08,19.00
2011,08,08,12,09,18.90
2011,08,08,12,10,19.00
2011,08,08,12,11,19.20
2011,08,08,12,12,19.30
2011,08,08,12,13,19.50
2011,08,08,12,14,19.60
2011,08,08,12,15,19.60
2011,08,08,12,16,19.60
2011,08,08,12,17,19.80
2011,08,08,12,18,19.80
2011,08,08,12,19,19.80
2011,08,08,12,20,19.80
2011,08,08,12,21,19.90
2011,08,08,12,22,19.70
2011,08,08,12,23,19.70
2011,08,08,12,24,19.50
2011,08,08,12,25,19.30
2011,08,08,12,26,19.40
2011,08,08,12,27,19.50
2011,08,08,12,28,19.60
2011,08,08,12,29,19.70
2011,08,08,12,30,19.70
2011,08,08,12,31,19.60
2011,08,08,12,32,19.60
2011,08,08,12,33,19.60
2011,08,08,12,34,19.60
2011,08,08,12,35,19.60
2011,08,08,12,36,19.60
2011,08,08,12,37,19.50
2011,08,08,12,38,19.30
2011,08,08,12,39,19.10
2011,08,08,12,40,19.10
2011,08,08,12,41,18.90
2011,08,08,12,42,18.90
2011,08,08,12,43,19.00
2011,08,08,12,44,19.10
2011,08,08,12,45,19.10
2011,08,08,12,46,19.20
2011,08,08,12,47,19.20
2011,08,08,12,48,19.30
2011,08,08,12,49,19.40
2011,08,08,12,50,19.40
2011,08,08,12,51,19.30
2011,08,08,12,52,19.20
2011,08,08,12,53,19.10
2011,08,08,12,54,19.10
2011,08,08,12,55,19.10
2011,08,08,12,56,19.20
2011,08,08,12,57,19.40
2011,08,08,12,58,19.50
2011,08,08,12,59,19.50
2011,08,08,13,00,19.50
2011,08,08,13,01,19.60
2011,08,08,13,02,19.70
2011,08,08,13,03,19.60
2011,08,08,13,04,19.60
2011,08,08,13,05,19.60
2011,08,08,13,06,19.60
2011,08,08,13,07,19.50
2011,08,08,13,08,19.60
2011,08,08,13,09,19.70
2011,08,08,13,10,19.80
2011,08,08,13,11,19.90
2011,08,08,13,12,19.90
2011,08,08,13,13,20.10
2011,08,08,13,14,20.10
2011,08,08,13,15,20.20
2011,08,08,13,16,20.50
2011,08,08,13,17,20.70
2011,08,08,13,18,20.60
2011,08,08,13,19,20.60
2011,08,08,13,20,20.70
2011,08,08,13,21,20.60
2011,08,08,13,22,20.40
2011,08,08,13,23,20.40
2011,08,08,13,24,20.50
2011,08,08,13,25,20.50
2011,08,08,13,26,20.40
2011,08,08,13,27,20.20
2011,08,08,13,28,20.10
2011,08,08,13,29,20.10
2011,08,08,13,30,20.20
2011,08,08,13,31,20.10
2011,08,08,13,32,20.10
2011,08,08,13,33,20.10
2011,08,08,13,34,20.10
2011,08,08,13,35,20.10
2011,08,08,13,36,20.10
2011,08,08,13,37,20.20
2011,08,08,13,38,20.20
2011,08,08,13,39,20.20
2011,08,08,13,40,20.00
2011,08,08,13,41,19.90
2011,08,08,13,42,19.90
2011,08,08,13,43,19.90
2011,08,08,13,44,19.80
2011,08,08,13,45,19.80
2011,08,08,13,46,19.80
2011,08,08,13,47,20.00
2011,08,08,13,48,20.10
2011,08,08,13,49,20.10
2011,08,08,13,50,20.20
2011,08,08,13,51,20.20
2011,08,08,13,52,20.30
2011,08,08,13,53,20.30
2011,08,08,13,54,20.30
2011,08,08,13,55,20.30
2011,08,08,13,56,20.40
2011,08,08,13,57,20.50
2011,08,08,13,58,20.50
2011,08,08,13,59,20.60
2011,08,08,14,00,20.70
2011,08,08,14,01,20.70
2011,08,08,14,02,20.70
2011,08,08,14,03,20.80
2011,08,08,14,04,20.80
2011,08,08,14,05,20.90
2011,08,08,14,06,21.00
2011,08,08,14,07,21.00
2011,08,08,14,08,21.10
2011,08,08,14,09,21.20
2011,08,08,14,10,21.30
2011,08,08,14,11,21.50
2011,08,08,14,12,21.50
2011,08,08,14,13,21.40
2011,08,08,14,14,21.30
2011,08,08,14,15,21.30
2011,08,08,14,16,21.10
2011,08,08,14,17,21.00
2011,08,08,14,18,20.90
2011,08,08,14,19,21.00
2011,08,08,14,20,21.10
2011,08,08,14,21,21.30
2011,08,08,14,22,21.20
2011,08,08,14,23,21.10
2011,08,08,14,24,21.10
2011,08,08,14,25,21.10
2011,08,08,14,26,21.10
2011,08,08,14,27,21.20
2011,08,08,14,28,21.30
2011,08,08,14,29,21.30
2011,08,08,14,30,21.30
2011,08,08,14,31,21.30
2011,08,08,14,32,21.20
2011,08,08,14,33,21.10
2011,08,08,14,34,21.10
2011,08,08,14,35,21.00
2011,08,08,14,36,20.90
2011,08,08,14,37,21.00
2011,08,08,14,38,21.00
2011,08,08,14,39,21.10
2011,08,08,14,40,21.10
2011,08,08,14,41,21.10
2011,08,08,14,42,21.20
2011,08,08,14,43,21.10
2011,08,08,14,44,21.00
2011,08,08,14,45,21.00
2011,08,08,14,46,20.90
2011,08,08,14,47,20.80
2011,08,08,14,48,20.50
2011,08,08,14,49,20.20
2011,08,08,14,50,20.10
2011,08,08,14,51,20.20
2011,08,08,14,52,20.20
2011,08,08,14,53,20.20
2011,08,08,14,54,20.10
2011,08,08,14,55,20.10
2011,08,08,14,56,20.20
2011,08,08,14,57,20.20
2011,08,08,14,58,20.20
2011,08,08,14,59,20.20
2011,08,08,15,00,20.20
2011,08,08,15,01,20.20
2011,08,08,15,02,20.20
2011,08,08,15,03,20.20
2011,08,08,15,04,20.40
2011,08,08,15,05,20.50
2011,08,08,15,06,20.60
2011,08,08,15,07,20.60
2011,08,08,15,08,20.70
2011,08,08,15,09,20.60
2011,08,08,15,10,20.50
2011,08,08,15,11,20.30
2011,08,08,15,12,20.30
2011,08,08,15,13,20.40
2011,08,08,15,14,20.40
2011,08,08,15,15,20.40
2011,08,08,15,16,20.40
2011,08,08,15,17,20.50
2011,08,08,15,18,20.60
2011,08,08,15,19,20.70
2011,08,08,15,20,20.80
2011,08,08,15,21,20.80
2011,08,08,15,22,20.90
2011,08,08,15,23,20.80
2011,08,08,15,24,20.90
2011,08,08,15,25,20.90
2011,08,08,15,26,21.00
2011,08,08,15,27,21.10
2011,08,08,15,28,21.30
2011,08,08,15,29,21.30
2011,08,08,15,30,21.30
2011,08,08,15,31,21.30
2011,08,08,15,32,21.30
2011,08,08,15,33,21.30
2011,08,08,15,34,21.30
2011,08,08,15,35,21.30
2011,08,08,15,36,21.30
2011,08,08,15,37,21.30
2011,08,08,15,38,21.30
2011,08,08,15,39,21.30
2011,08,08,15,40,21.50
2011,08,08,15,41,21.60
2011,08,08,15,42,21.50
2011,08,08,15,43,21.40
2011,08,08,15,44,21.30
2011,08,08,15,45,21.30
2011,08,08,15,46,21.30
2011,08,08,15,47,21.30
2011,08,08,15,48,21.50
2011,08,08,15,49,21.70
2011,08,08,15,50,21.90
2011,08,08,15,51,22.10
2011,08,08,15,52,22.20
2011,08,08,15,53,22.30
2011,08,08,15,54,22.40
2011,08,08,15,55,22.40
2011,08,08,15,56,22.40
2011,08,08,15,57,22.40
2011,08,08,15,58,22.60
2011,08,08,15,59,22.60
2011,08,08,16,00,22.60
2011,08,08,16,01,22.60
2011,08,08,16,02,22.60
2011,08,08,16,03,22.60
2011,08,08,16,04,22.50
2011,08,08,16,05,22.50
2011,08,08,16,06,22.50
2011,08,08,16,07,22.40
2011,08,08,16,08,22.20
2011,08,08,16,09,22.20
2011,08,08,16,10,22.20
2011,08,08,16,11,22.10
2011,08,08,16,12,21.90
2011,08,08,16,13,21.70
2011,08,08,16,14,21.60
2011,08,08,16,15,21.60
2011,08,08,16,16,21.60
2011,08,08,16,17,21.60
2011,08,08,16,18,21.60
2011,08,08,16,19,21.70
2011,08,08,16,20,22.00
2011,08,08,16,21,22.10
2011,08,08,16,22,22.00
2011,08,08,16,23,22.10
2011,08,08,16,24,22.00
2011,08,08,16,25,21.90
2011,08,08,16,26,21.80
2011,08,08,16,27,21.80
2011,08,08,16,28,21.80
2011,08,08,16,29,21.90
2011,08,08,16,30,21.90
2011,08,08,16,31,21.90
2011,08,08,16,32,22.00
2011,08,08,16,33,22.00
2011,08,08,16,34,22.10
2011,08,08,16,35,22.10
2011,08,08,16,36,22.10
2011,08,08,16,37,22.10
2011,08,08,16,38,22.00
2011,08,08,16,39,22.00
2011,08,08,16,40,22.00
2011,08,08,16,41,21.90
2011,08,08,16,42,21.80
2011,08,08,16,43,21.90
2011,08,08,16,44,22.00
2011,08,08,16,45,22.10
2011,08,08,16,46,22.20
2011,08,08,16,47,22.30
2011,08,08,16,48,22.40
2011,08,08,16,49,22.60
2011,08,08,16,50,22.60
2011,08,08,16,51,22.70
2011,08,08,16,52,22.80
2011,08,08,16,53,22.90
2011,08,08,16,54,22.90
2011,08,08,16,55,23.00
2011,08,08,16,56,23.10
2011,08,08,16,57,23.10
2011,08,08,16,58,22.90
2011,08,08,16,59,22.60
2011,08,08,17,00,22.50
2011,08,08,17,01,22.40
2011,08,08,17,02,22.50
2011,08,08,17,03,22.60
2011,08,08,17,04,22.50
2011,08,08,17,05,22.40
2011,08,08,17,06,22.30
2011,08,08,17,07,22.20
2011,08,08,17,08,22.10
2011,08,08,17,09,22.00
2011,08,08,17,10,21.90
2011,08,08,17,11,21.90
2011,08,08,17,12,22.00
2011,08,08,17,13,22.10
2011,08,08,17,14,22.10
2011,08,08,17,15,22.00
2011,08,08,17,16,22.00
2011,08,08,17,17,22.00
2011,08,08,17,18,21.90
2011,08,08,17,19,21.80